Wind_Speed
12 12 12 12 13 13 12 11 11 11 10 9 8 8 10 10 10 9 10 9 9 8 8 7 7 7 7 7 7 7 7 6 7 7 7 8 8 8 8 7 7 6 6 5 5 4 4 3 2
12 12 12 12 13 11 11 11 12 11 10 9 9 9 9 10 10 10 9 9 9 8 8 7 7 8 7 7 7 7 6 5 5 6 7 7 7 7 7 7 6 6 5 5 4 4 3 2 1
12 12 12 13 12 10 10 11 11 11 11 11 11 10 10 10 10 9 9 10 9 8 8 8 8 8 7 7 7 7 7 6 6 7 8 7 7 7 7 6 5 5 4 5 4 3 2 2 1
12 12 12 12 10 10 11 11 11 11 12 12 12 11 10 9 9 9 9 9 9 8 8 8 7 7 7 7 7 7 6 7 7 8 8 7 7 6 6 5 5 4 4 4 3 3 2 1 1
12 12 12 10 9 10 11 11 11 12 12 12 12 12 10 10 9 8 8 8 8 8 8 8 8 7 7 7 6 6 7 7 8 7 8 7 6 6 6 5 4 3 3 3 2 2 1 1 2
11 12 11 9 8 9 10 10 11 12 12 11 12 11 10 9 8 8 8 8 8 7 7 7 7 7 7 6 6 6 6 6 7 7 7 6 6 5 5 4 4 3 3 2 2 2 1 1 1
11 11 10 9 9 9 9 9 10 11 11 11 11 11 10 9 8 7 8 8 8 7 7 7 6 6 6 5 6 6 6 6 6 6 6 6 6 5 5 4 3 3 2 1 1 1 1 1 1
10 11 9 9 9 9 9 9 9 10 11 11 11 11 10 10 9 8 8 8 8 7 6 6 5 6 5 5 5 5 5 6 6 5 5 5 5 4 4 3 3 2 2 1 1 0 0 0 1
9 10 8 8 8 9 9 9 9 9 9 10 10 10 10 9 9 9 8 8 7 6 6 5 5 5 5 4 4 4 4 5 4 4 4 4 4 4 3 2 2 1 1 0 0 0 0 0 1
8 8 8 7 8 9 9 9 9 8 9 9 9 9 9 9 8 7 7 7 6 6 5 4 4 4 4 4 3 3 3 4 4 5 4 4 3 3 2 2 1 0 0 1 1 1 2 1 1
7 8 8 8 9 9 9 9 8 7 7 8 8 8 8 8 7 6 6 6 5 5 4 4 4 4 4 3 2 3 4 3 4 4 4 4 3 2 2 2 1 1 1 1 1 1 2 2 2
7 7 7 7 8 7 7 7 7 6 6 8 8 7 7 8 7 6 6 5 5 4 3 3 3 4 3 3 3 3 4 3 3 3 3 3 3 2 2 1 1 1 1 2 2 3 2 2 3
7 6 7 7 8 7 7 7 6 6 6 6 7 8 7 7 6 5 4 4 4 3 3 3 4 4 3 2 3 3 3 3 3 3 3 2 2 2 1 1 2 2 2 3 3 3 3 3 4
6 5 6 6 6 6 6 6 6 5 6 6 6 7 7 6 5 4 3 3 2 2 2 2 3 2 2 2 2 2 2 2 2 2 3 2 1 1 1 1 2 2 3 4 4 3 4 4 3
5 6 5 4 4 4 5 6 6 5 5 5 5 5 6 6 5 5 4 3 1 2 2 2 2 2 2 2 1 1 1 1 2 1 2 2 1 1 1 2 2 3 4 4 4 4 3 4 4
6 5 4 3 2 2 3 4 4 4 4 4 4 5 5 5 5 4 3 3 2 1 1 1 1 2 2 2 2 1 1 1 2 2 2 2 2 2 2 2 3 3 4 5 4 4 4 4 4
6 5 4 3 2 1 1 2 2 3 3 4 4 4 4 4 5 3 2 2 2 1 0 1 2 2 2 2 1 1 2 2 3 3 3 3 3 3 3 3 3 4 5 5 6 6 5 5 5
8 7 5 4 3 2 1 1 2 2 3 3 4 4 3 4 4 3 2 2 2 2 2 2 2 3 2 2 2 3 3 3 3 3 4 4 4 3 3 4 4 4 5 6 6 6 6 6 7
9 8 7 6 4 3 3 3 3 3 3 3 3 3 3 4 4 3 3 3 3 3 3 3 3 3 3 3 3 4 3 4 3 4 4 4 4 5 4 5 5 5 6 6 6 7 7 7 8
10 9 8 7 6 5 4 4 4 4 3 3 4 3 4 5 5 5 4 4 4 4 4 3 3 4 4 5 5 5 5 5 4 5 5 4 5 4 5 5 6 6 7 7 8 8 8 8 8
12 11 10 9 7 6 5 5 5 5 4 5 5 5 5 6 6 6 5 5 5 4 4 4 4 4 5 5 6 5 5 5 5 5 5 5 5 4 5 6 7 7 8 8 9 9 9 9 10
12 11 11 11 9 8 7 7 8 7 6 6 7 7 7 7 7 7 7 6 5 5 5 5 5 5 5 5 6 5 6 5 5 5 5 6 6 6 6 7 8 9 9 9 10 10 10 10 10
13 12 12 12 11 10 10 9 9 9 8 8 8 8 8 8 8 9 8 8 7 7 7 7 6 6 6 7 7 6 5 5 5 6 7 7 7 8 8 8 9 10 10 10 10 10 10 11 11
13 12 12 12 12 12 12 11 9 10 10 10 10 9 10 10 10 11 10 9 8 9 9 8 7 7 8 8 8 6 6 6 6 7 8 8 8 8 9 10 10 11 11 12 11 11 12 12 12
13 11 11 11 12 13 13 12 11 11 10 10 11 10 11 11 11 11 11 10 10 11 10 10 9 8 9 8 8 8 8 8 8 8 8 9 9 9 10 10 11 12 13 13 13 12 12 13 13
14 13 12 11 12 13 14 12 12 12 11 12 12 12 12 12 11 11 11 12 12 13 12 11 10 10 10 10 10 10 10 9 10 10 10 10 10 10 11 11 12 13 14 14 13 13 13 14 14
16 15 14 14 13 13 14 14 14 14 13 12 13 13 13 13 13 12 12 13 13 13 14 13 13 12 12 11 11 11 10 11 11 11 11 12 12 12 12 12 13 14 14 14 14 14 15 15 16
17 16 16 14 14 14 14 14 15 15 14 14 14 15 15 14 14 14 14 14 14 14 14 14 14 14 13 12 11 11 11 12 12 12 12 13 13 13 13 14 15 15 15 15 15 16 16 17 17
19 18 18 16 16 15 15 15 17 16 15 15 15 16 16 15 15 15 15 15 14 14 14 14 14 14 13 13 12 12 13 13 13 14 15 15 15 15 16 16 17 16 16 16 17 17 18 18 18
20 20 19 18 19 19 17 17 18 17 16 17 17 17 17 16 16 16 16 16 16 16 16 15 15 15 14 14 14 14 14 15 15 16 16 16 17 17 17 18 18 18 18 18 18 19 19 20 20
Wind_Direction
93 92 91 91 86 79 82 85 84 84 87 89 89 89 95 98 103 107 111 111 113 113 114 114 117 123 126 125 126 128 129 127 127 131 133 134 130 125 120 115 111 109 106 108 111 107 116 122 118
92 90 91 90 84 80 82 83 83 84 87 90 89 88 97 103 107 109 108 111 115 114 113 110 115 121 126 126 125 126 120 117 127 134 135 131 130 124 118 118 112 109 106 111 114 111 116 118 99
91 89 90 87 85 86 85 84 80 80 83 86 86 85 91 102 106 106 110 109 112 113 112 111 108 116 124 125 126 124 112 105 117 132 133 128 128 126 120 118 116 111 106 109 110 108 105 96 98
93 91 87 84 86 87 87 84 81 78 80 83 85 86 90 97 100 106 111 108 108 109 111 111 109 111 120 124 127 122 110 105 112 125 128 127 127 128 125 120 120 115 108 101 100 100 111 98 128
94 92 85 82 86 85 85 84 82 78 79 81 82 84 85 92 97 105 111 111 110 109 111 113 113 114 118 122 124 119 116 113 115 122 127 129 132 136 135 132 131 120 108 96 100 89 90 78 89
94 89 88 85 85 88 87 85 82 78 80 79 78 79 80 84 92 106 115 118 116 114 112 115 116 117 118 120 125 123 120 121 124 125 130 134 134 135 136 137 137 133 126 110 94 79 87 93 97
96 93 95 91 91 91 89 86 82 80 80 78 77 77 75 76 87 106 119 120 119 121 118 116 120 120 120 122 120 124 121 125 128 133 133 135 134 133 133 136 140 147 135 106 98 53 92 79 55
100 95 93 93 92 91 90 88 82 80 80 78 78 78 74 72 83 102 115 121 119 118 120 114 121 124 123 123 120 119 121 125 128 131 136 137 139 140 128 133 143 149 144 111 97 2 277 5 1
107 98 99 100 96 92 90 88 85 82 80 81 80 77 75 75 80 95 108 120 121 119 121 118 124 125 123 117 111 113 122 131 131 133 136 141 142 147 141 145 146 128 143 126 46 292 301 328 320
116 111 112 108 102 95 89 86 83 80 79 82 78 77 76 76 79 88 102 115 118 119 124 123 127 125 123 116 110 115 127 137 146 139 131 142 142 149 154 164 179 181 277 353 344 308 301 301 307
120 121 119 112 106 99 92 87 81 80 77 81 76 73 75 75 81 84 97 105 115 126 131 134 130 128 128 132 128 123 131 143 151 152 149 157 154 154 163 176 200 227 267 300 317 312 296 291 295
122 122 123 119 111 103 95 89 82 77 74 78 76 75 72 70 70 78 94 102 108 117 125 131 133 134 136 132 136 133 129 134 144 159 165 170 179 184 188 208 230 252 299 312 304 298 283 272 272
124 120 120 119 115 105 97 92 81 73 71 68 67 70 70 67 56 64 85 101 106 115 129 138 130 133 132 132 146 141 141 146 153 157 162 175 191 203 208 248 255 266 291 300 299 303 304 294 275
133 127 132 129 120 108 94 84 69 66 70 64 56 61 66 63 51 52 66 79 103 127 136 154 159 161 150 155 154 146 137 151 169 175 172 179 188 176 189 266 265 278 288 294 299 302 303 303 290
151 139 143 140 127 111 88 73 67 69 68 60 50 47 50 54 55 53 57 48 75 155 170 172 173 170 172 174 157 140 110 149 164 183 204 217 214 206 222 290 293 293 299 303 304 310 303 297 291
165 148 157 167 153 115 83 68 57 54 45 42 38 39 42 45 44 42 43 41 61 129 149 168 183 199 218 224 237 258 257 245 226 245 254 240 242 242 268 297 301 296 295 300 302 308 309 306 300
187 187 195 209 208 157 71 54 44 38 33 26 20 20 21 21 22 21 19 22 31 23 319 236 245 237 248 257 288 297 279 264 260 265 265 263 265 261 282 302 304 306 302 298 295 296 296 300 299
208 206 212 222 232 249 298 341 357 5 5 359 0 357 352 351 357 357 343 344 346 335 319 283 266 265 275 275 284 305 274 270 276 277 271 266 271 280 286 296 300 311 313 306 304 299 294 299 305
219 221 225 235 239 256 276 298 324 342 336 327 335 345 337 326 329 331 329 321 320 320 316 310 304 284 281 280 290 297 285 278 275 281 277 281 282 284 285 291 304 307 310 310 308 300 296 296 298
227 230 231 241 251 256 265 280 294 316 318 307 302 304 308 313 314 316 320 318 308 312 313 311 315 306 295 285 286 284 283 285 279 278 276 280 287 292 298 297 303 308 308 310 308 306 302 302 300
228 230 234 242 249 256 266 275 285 294 302 301 294 291 296 304 305 307 302 305 302 302 307 305 307 304 302 295 296 291 290 284 283 282 274 279 283 286 296 301 303 304 307 308 308 307 304 300 298
230 232 236 241 245 254 259 270 277 281 291 298 296 294 294 300 298 299 295 298 297 294 304 304 303 306 308 311 314 301 294 288 285 278 275 281 283 283 289 295 299 299 303 305 306 305 305 302 299
232 235 238 241 245 252 261 267 268 271 278 285 293 293 290 291 288 289 292 293 291 291 294 298 297 299 302 306 311 304 300 297 292 287 281 283 284 285 288 293 295 297 299 301 300 299 300 300 298
235 238 243 247 250 254 258 261 260 266 270 276 282 286 285 289 286 284 286 285 283 284 286 287 286 289 295 300 298 292 294 293 291 289 288 287 286 285 286 289 291 295 298 300 298 296 296 297 296
238 239 246 250 252 255 259 261 258 263 264 270 276 279 280 282 281 284 278 275 276 277 279 280 276 283 289 294 292 285 286 284 282 285 290 292 290 293 291 292 294 296 297 299 297 294 296 297 296
239 237 236 244 251 257 262 262 262 262 266 268 272 276 277 277 279 281 276 271 274 273 272 273 272 277 280 286 288 284 282 282 282 285 291 295 292 292 292 292 295 296 297 297 294 291 294 294 294
236 239 240 243 250 256 261 265 268 268 268 269 272 275 276 275 276 277 275 272 273 273 270 269 269 276 274 276 280 284 282 283 284 288 291 294 294 291 290 290 294 296 295 295 294 293 293 293 293
236 239 241 241 249 257 265 268 268 270 272 272 272 273 276 277 275 274 272 270 274 274 271 269 269 270 271 272 276 281 280 281 281 283 289 293 293 291 290 289 292 296 297 295 293 294 294 295 294
241 243 247 248 250 255 263 266 264 265 268 270 271 273 274 274 274 275 271 269 270 272 275 271 266 266 270 274 278 280 279 277 278 281 285 288 291 291 290 292 294 295 295 294 294 294 295 296 295
243 246 249 252 257 259 262 268 266 264 266 270 271 269 270 271 272 273 270 268 267 270 272 272 274 271 274 279 279 280 279 279 280 283 288 287 289 292 291 293 294 293 293 292 292 292 293 294 295
Height
5898 5898 5898 5899 5899 5899 5898 5898 5896 5896 5895 5894 5894 5893 5893 5893 5894 5896 5893 5892 5892 5892 5892 5893 5893 5893 5893 5894 5894 5895 5895 5894 5894 5894 5895 5896 5897 5897 5898 5898 5898 5899 5899 5899 5899 5899 5899 5899 5899
5900 5900 5901 5901 5901 5902 5900 5899 5898 5897 5896 5895 5895 5894 5893 5893 5893 5893 5893 5893 5893 5893 5893 5893 5894 5894 5894 5894 5895 5895 5895 5894 5893 5893 5895 5896 5897 5898 5898 5899 5899 5899 5899 5899 5899 5899 5899 5899 5899
5901 5902 5903 5903 5903 5903 5902 5900 5899 5898 5897 5896 5896 5895 5894 5894 5894 5893 5893 5894 5894 5894 5894 5894 5894 5895 5895 5895 5895 5895 5895 5893 5890 5891 5894 5896 5897 5898 5899 5899 5899 5899 5899 5899 5899 5899 5899 5899 5899
5903 5904 5905 5905 5905 5904 5903 5902 5901 5900 5899 5898 5897 5896 5895 5895 5895 5894 5894 5895 5895 5895 5895 5895 5895 5896 5896 5896 5896 5896 5896 5894 5892 5892 5895 5897 5898 5899 5899 5899 5900 5900 5899 5899 5899 5899 5899 5898 5898
5905 5906 5907 5907 5906 5906 5905 5903 5902 5901 5900 5899 5899 5898 5896 5896 5895 5895 5895 5896 5896 5896 5895 5896 5896 5897 5897 5897 5897 5897 5897 5896 5895 5896 5897 5898 5899 5900 5900 5900 5900 5900 5900 5899 5899 5899 5898 5898 5898
5908 5908 5909 5909 5908 5907 5906 5905 5904 5903 5902 5901 5900 5899 5898 5897 5896 5895 5896 5896 5897 5897 5897 5897 5897 5897 5898 5898 5898 5898 5898 5897 5897 5898 5898 5899 5899 5900 5900 5900 5900 5900 5900 5900 5899 5899 5899 5899 5898
5910 5910 5910 5910 5909 5909 5908 5907 5905 5904 5904 5903 5902 5901 5899 5897 5895 5895 5896 5897 5898 5898 5898 5898 5899 5899 5899 5898 5898 5898 5898 5899 5899 5899 5899 5900 5900 5900 5901 5901 5900 5900 5900 5899 5899 5899 5899 5899 5899
5911 5912 5912 5912 5911 5910 5909 5908 5907 5906 5905 5905 5903 5902 5901 5899 5896 5896 5897 5898 5899 5899 5899 5900 5900 5900 5899 5899 5899 5899 5899 5899 5900 5900 5900 5900 5900 5901 5901 5900 5900 5900 5900 5899 5899 5898 5898 5898 5899
5912 5914 5914 5913 5912 5912 5911 5910 5909 5908 5907 5906 5905 5904 5903 5901 5899 5899 5899 5900 5900 5900 5900 5901 5900 5900 5900 5900 5900 5900 5900 5900 5900 5900 5900 5901 5901 5901 5901 5901 5900 5900 5900 5899 5899 5898 5898 5898 5898
5914 5915 5915 5914 5913 5913 5912 5911 5910 5909 5909 5908 5907 5906 5904 5903 5902 5901 5901 5901 5901 5901 5901 5901 5901 5901 5901 5901 5901 5900 5900 5900 5900 5900 5901 5901 5901 5900 5900 5900 5900 5900 5900 5899 5899 5898 5898 5897 5897
5915 5915 5915 5915 5914 5914 5913 5912 5912 5911 5910 5909 5908 5907 5906 5905 5904 5903 5903 5902 5902 5902 5902 5902 5902 5902 5902 5901 5901 5901 5901 5901 5900 5900 5901 5901 5901 5900 5900 5900 5900 5900 5899 5899 5898 5898 5897 5897 5896
5916 5916 5916 5916 5915 5915 5914 5914 5913 5912 5912 5910 5909 5908 5907 5906 5905 5904 5904 5904 5904 5903 5903 5903 5903 5902 5902 5902 5901 5901 5901 5901 5901 5901 5901 5901 5901 5900 5900 5900 5899 5899 5899 5898 5897 5897 5896 5895 5895
5917 5917 5917 5917 5917 5916 5916 5915 5914 5913 5912 5912 5910 5909 5908 5907 5906 5906 5905 5905 5905 5904 5904 5904 5903 5903 5903 5902 5901 5901 5901 5901 5901 5901 5901 5901 5901 5900 5900 5900 5899 5899 5898 5898 5897 5896 5895 5894 5894
5917 5918 5918 5918 5918 5917 5917 5916 5915 5914 5914 5913 5912 5910 5909 5908 5907 5907 5906 5906 5905 5905 5905 5904 5904 5904 5903 5903 5902 5901 5901 5901 5901 5901 5901 5901 5900 5900 5900 5899 5899 5898 5898 5897 5896 5895 5894 5893 5893
5918 5919 5919 5919 5918 5918 5918 5918 5916 5915 5915 5914 5913 5912 5910 5909 5909 5908 5907 5906 5906 5906 5905 5905 5904 5904 5903 5903 5902 5901 5901 5901 5901 5901 5901 5901 5900 5900 5899 5899 5898 5898 5897 5896 5895 5894 5893 5892 5892
5918 5920 5921 5920 5919 5919 5920 5919 5917 5916 5916 5915 5914 5913 5912 5911 5910 5909 5908 5907 5906 5906 5905 5905 5905 5904 5903 5903 5902 5901 5901 5901 5901 5901 5900 5900 5900 5899 5899 5898 5898 5897 5896 5895 5895 5894 5893 5892 5892
5919 5921 5921 5920 5920 5919 5920 5919 5918 5917 5916 5915 5914 5914 5912 5911 5910 5910 5908 5907 5907 5906 5906 5905 5905 5904 5903 5903 5902 5901 5901 5901 5900 5900 5899 5899 5899 5898 5898 5897 5897 5896 5895 5894 5894 5893 5892 5892 5891
5919 5920 5920 5920 5919 5919 5919 5919 5918 5917 5916 5916 5915 5914 5913 5912 5911 5910 5909 5908 5907 5906 5906 5905 5904 5904 5903 5902 5902 5901 5900 5900 5900 5899 5899 5898 5898 5897 5897 5897 5896 5895 5894 5893 5893 5892 5891 5891 5890
5917 5918 5919 5919 5918 5918 5919 5919 5918 5917 5916 5916 5915 5914 5913 5912 5911 5910 5909 5908 5907 5906 5906 5905 5904 5903 5902 5901 5901 5900 5899 5899 5898 5898 5898 5897 5897 5896 5896 5896 5895 5894 5894 5892 5892 5891 5890 5889 5888
5915 5916 5917 5917 5917 5917 5918 5918 5917 5917 5916 5915 5914 5914 5913 5911 5911 5910 5909 5908 5907 5906 5905 5905 5904 5903 5902 5901 5900 5899 5898 5898 5897 5897 5896 5896 5896 5895 5895 5895 5894 5893 5892 5891 5891 5890 5889 5887 5886
5913 5914 5915 5916 5916 5916 5917 5918 5917 5916 5915 5914 5914 5913 5912 5911 5910 5909 5908 5907 5906 5906 5905 5904 5903 5902 5901 5899 5898 5897 5897 5896 5896 5896 5895 5895 5895 5894 5894 5893 5893 5892 5891 5890 5889 5888 5887 5886 5885
5911 5912 5913 5913 5914 5915 5916 5917 5916 5915 5914 5913 5912 5912 5911 5910 5909 5908 5907 5906 5905 5905 5904 5903 5902 5901 5900 5898 5897 5896 5895 5895 5895 5894 5894 5894 5893 5893 5892 5892 5891 5890 5890 5889 5887 5886 5885 5884 5883
5908 5909 5910 5911 5912 5913 5914 5915 5916 5913 5912 5912 5911 5910 5909 5909 5908 5907 5906 5905 5904 5904 5903 5902 5901 5900 5899 5898 5896 5895 5894 5894 5893 5893 5892 5892 5892 5891 5890 5890 5889 5888 5887 5886 5885 5884 5883 5882 5881
5905 5907 5908 5909 5910 5912 5912 5912 5914 5912 5911 5910 5909 5908 5907 5907 5906 5905 5904 5903 5903 5902 5901 5900 5900 5899 5898 5897 5895 5895 5894 5893 5892 5892 5891 5890 5890 5889 5888 5888 5887 5886 5885 5884 5883 5882 5881 5880 5878
5902 5905 5907 5908 5909 5910 5909 5909 5910 5909 5908 5907 5907 5906 5905 5904 5903 5903 5902 5901 5901 5900 5899 5899 5898 5897 5896 5895 5894 5893 5892 5892 5891 5890 5889 5888 5888 5887 5886 5885 5885 5884 5883 5882 5880 5879 5878 5877 5876
5899 5902 5905 5907 5908 5907 5905 5906 5907 5905 5905 5904 5904 5903 5902 5902 5901 5900 5899 5899 5898 5898 5897 5896 5896 5895 5894 5893 5892 5892 5891 5890 5889 5888 5887 5886 5885 5885 5884 5883 5882 5881 5880 5879 5878 5876 5875 5874 5873
5895 5897 5900 5902 5902 5904 5903 5903 5902 5902 5902 5901 5901 5900 5899 5899 5898 5897 5896 5896 5895 5895 5894 5894 5893 5892 5892 5891 5890 5889 5889 5888 5887 5886 5885 5884 5883 5882 5882 5881 5880 5878 5877 5876 5874 5873 5872 5870 5869
5892 5893 5895 5897 5898 5900 5901 5900 5900 5898 5898 5898 5898 5897 5896 5895 5895 5894 5893 5893 5893 5892 5891 5891 5890 5889 5889 5888 5888 5887 5886 5885 5885 5884 5883 5882 5881 5880 5879 5878 5877 5875 5874 5872 5871 5870 5868 5867 5865
5888 5889 5891 5893 5894 5896 5897 5899 5895 5894 5894 5894 5894 5893 5892 5892 5891 5891 5890 5890 5889 5889 5888 5887 5887 5886 5886 5886 5885 5884 5883 5883 5882 5881 5880 5879 5878 5877 5876 5875 5873 5872 5870 5869 5867 5866 5864 5863 5861
5883 5885 5887 5889 5889 5890 5892 5895 5890 5890 5890 5889 5889 5889 5888 5888 5887 5887 5886 5886 5886 5886 5885 5884 5884 5883 5883 5883 5882 5881 5880 5880 5879 5878 5876 5875 5874 5873 5872 5871 5869 5868 5866 5865 5863 5862 5860 5858 5857